| time (UTC) | temp F | wind direction | speed MPH | gust MPH | rain 1hr in | rain 24hr in | rain mn in | humidity % | barometer mb |
| 20260510032010 | 75 | 0.0 | 0.0 | 0.00 | 0.00 | 0.00 | 74 | 1011.5 | |
| 20260510031534 | 75 | 0.0 | 0.0 | 0.00 | 0.00 | 0.00 | 74 | 1011.3 | |
| 20260510030507 | 76 | 0.0 | 0.0 | 0.00 | 0.00 | 0.00 | 74 | 1011.2 | |
| 20260510030017 | 76 | 0.0 | 0.0 | 0.00 | 0.00 | 0.00 | 74 | 1011.1 | |
| 20260510025509 | 76 | 0.0 | 0.0 | 0.00 | 0.00 | 0.00 | 74 | 1010.9 | |
| 20260510025008 | 76 | 0.0 | 0.0 | 0.00 | 0.00 | 0.00 | 72 | 1010.7 | |
| 20260510024528 | 76 | 0.0 | 0.0 | 0.00 | 0.00 | 0.00 | 71 | 1010.4 | |
| 20260510024010 | 77 | 0.0 | 0.0 | 0.00 | 0.00 | 0.00 | 70 | 1010.3 | |
| 20260510023009 | 77 | 0.0 | 0.0 | 0.00 | 0.00 | 0.00 | 68 | 1010.2 | |
| 20260510022509 | 77 | 0.0 | 0.0 | 0.00 | 0.00 | 0.00 | 66 | 1010.1 | |
| 20260510022009 | 77 | 0.0 | 0.0 | 0.00 | 0.00 | 0.00 | 66 | 1009.9 | |
| 20260510021513 | 77 | 0.0 | 0.0 | 0.00 | 0.00 | 0.00 | 65 | 1009.6 | |
| 20260510014526 | 78 | 0.0 | 0.0 | 0.00 | 0.00 | 0.00 | 63 | 1008.9 | |
| 20260510014008 | 78 | 0.0 | 0.0 | 0.00 | 0.00 | 0.00 | 63 | 1008.9 | |
| 20260510013516 | 78 | 0.0 | 0.0 | 0.00 | 0.00 | 0.00 | 63 | 1008.9 | |
| 20260510013024 | 78 | 0.0 | 0.0 | 0.00 | 0.00 | 0.00 | 63 | 1008.9 | |
| 20260510012510 | 78 | 0.0 | 0.0 | 0.00 | 0.00 | 0.00 | 64 | 1008.9 | |
| 20260510011510 | 78 | 0.0 | 0.0 | 0.00 | 0.00 | 0.00 | 63 | 1008.8 | |
| 20260510011007 | 78 | 0.0 | 0.0 | 0.00 | 0.00 | 0.00 | 64 | 1008.7 | |
| 20260510010504 | 77 | 0.0 | 0.0 | 0.00 | 0.00 | 0.00 | 63 | 1008.7 | |
| 20260510010015 | 77 | 0.0 | 0.0 | 0.00 | 0.00 | 0.00 | 61 | 1008.8 | |
| 20260510004527 | 76 | 0.0 | 0.0 | 0.00 | 0.00 | 0.00 | 62 | 1008.5 | |
| 20260510003027 | 76 | 0.0 | 0.0 | 0.00 | 0.00 | 0.00 | 62 | 1008.8 | |
| 20260510002509 | 76 | 0.0 | 0.0 | 0.00 | 0.00 | 0.00 | 63 | 1008.8 | |
| 20260510002010 | 76 | 0.0 | 0.0 | 0.00 | 0.00 | 0.00 | 63 | 1008.7 | |
| 20260510001524 | 77 | 0.0 | 0.0 | 0.00 | 0.00 | 0.00 | 62 | 1008.8 | |
| 20260510001012 | 77 | 0.0 | 0.0 | 0.00 | 0.00 | 0.00 | 61 | 1008.7 | |
| 20260510000012 | 77 | 0.0 | 0.0 | 0.00 | 0.00 | 0.00 | 60 | 1008.7 | |
| 20260509234009 | 85 | 0.0 | 0.0 | 0.00 | 0.00 | 0.00 | 52 | 1008.2 | |
| 20260509231010 | 89 | 0.0 | 0.0 | 0.00 | 0.00 | 0.00 | 56 | 1008.0 | |
| 20260509230509 | 90 | 0.0 | 0.0 | 0.00 | 0.00 | 0.00 | 56 | 1008.0 | |
| 20260509230026 | 90 | 0.0 | 0.0 | 0.00 | 0.00 | 0.00 | 55 | 1007.8 | |
| 20260509225511 | 90 | 0.0 | 0.0 | 0.00 | 0.00 | 0.00 | 54 | 1007.7 | |
| 20260509224517 | 90 | 0.0 | 0.0 | 0.00 | 0.00 | 0.00 | 54 | 1007.7 | |
| 20260509224008 | 90 | 0.0 | 0.0 | 0.00 | 0.00 | 0.00 | 57 | 1007.7 | |
| 20260509223508 | 90 | 0.0 | 0.0 | 0.00 | 0.00 | 0.00 | 56 | 1007.7 | |
| 20260509223022 | 90 | 0.0 | 0.0 | 0.00 | 0.00 | 0.00 | 55 | 1007.8 | |
| 20260509222509 | 91 | 0.0 | 0.0 | 0.00 | 0.00 | 0.00 | 54 | 1007.7 | |
| 20260509222009 | 91 | 0.0 | 0.0 | 0.00 | 0.00 | 0.00 | 55 | 1007.7 | |
| 20260509221524 | 91 | 0.0 | 0.0 | 0.00 | 0.00 | 0.00 | 54 | 1007.5 | |
| 20260509221012 | 91 | 0.0 | 0.0 | 0.00 | 0.00 | 0.00 | 53 | 1007.5 | |
| 20260509220509 | 91 | 0.0 | 0.0 | 0.00 | 0.00 | 0.00 | 53 | 1007.6 | |
| 20260509220028 | 91 | 0.0 | 0.0 | 0.00 | 0.00 | 0.00 | 54 | 1007.6 | |
| 20260509215508 | 90 | 0.0 | 0.0 | 0.00 | 0.00 | 0.00 | 56 | 1007.6 | |
| 20260509215012 | 90 | 0.0 | 0.0 | 0.00 | 0.00 | 0.00 | 57 | 1007.6 | |
| 20260509214528 | 90 | 0.0 | 0.0 | 0.00 | 0.00 | 0.00 | 57 | 1007.5 | |
| 20260509214012 | 91 | 0.0 | 0.0 | 0.00 | 0.00 | 0.00 | 56 | 1007.6 | |
| 20260509213519 | 91 | 0.0 | 0.0 | 0.00 | 0.00 | 0.00 | 56 | 1007.8 | |
| 20260509213015 | 91 | 0.0 | 0.0 | 0.00 | 0.00 | 0.00 | 54 | 1007.7 | |
| 20260509211521 | 91 | 0.0 | 0.0 | 0.00 | 0.00 | 0.00 | 56 | 1007.8 | |
| 20260509211007 | 91 | 0.0 | 0.0 | 0.00 | 0.00 | 0.00 | 58 | 1007.8 | |
| 20260509210509 | 91 | 0.0 | 0.0 | 0.00 | 0.00 | 0.00 | 57 | 1007.8 | |
| 20260509210026 | 91 | 0.0 | 0.0 | 0.00 | 0.00 | 0.00 | 58 | 1007.9 | |
| 20260509205510 | 91 | 0.0 | 0.0 | 0.00 | 0.00 | 0.00 | 58 | 1008.0 | |
| 20260509204509 | 90 | 0.0 | 0.0 | 0.00 | 0.00 | 0.00 | 59 | 1008.2 | |
| 20260509204009 | 90 | 0.0 | 0.0 | 0.00 | 0.00 | 0.00 | 58 | 1008.3 | |
| 20260509203504 | 90 | 0.0 | 0.0 | 0.00 | 0.00 | 0.00 | 59 | 1008.4 | |
| 20260509202503 | 90 | 0.0 | 0.0 | 0.00 | 0.00 | 0.00 | 59 | 1008.5 | |
| 20260509201521 | 90 | 0.0 | 0.0 | 0.00 | 0.00 | 0.00 | 59 | 1008.6 | |
| 20260509200020 | 90 | 0.0 | 0.0 | 0.00 | 0.00 | 0.00 | 60 | 1008.7 | |
| 20260509195005 | 90 | 0.0 | 0.0 | 0.00 | 0.00 | 0.00 | 61 | 1008.8 | |
| 20260509193504 | 90 | 0.0 | 0.0 | 0.00 | 0.00 | 0.00 | 60 | 1008.8 | |
| 20260509192007 | 90 | 0.0 | 0.0 | 0.00 | 0.00 | 0.00 | 58 | 1009.1 | |
| 20260509191009 | 90 | 0.0 | 0.0 | 0.00 | 0.00 | 0.00 | 58 | 1009.1 | |
| 20260509185507 | 90 | 0.0 | 0.0 | 0.00 | 0.00 | 0.00 | 59 | 1009.2 | |
| 20260509184532 | 89 | 0.0 | 0.0 | 0.00 | 0.00 | 0.00 | 61 | 1009.1 | |
| 20260509184003 | 89 | 0.0 | 0.0 | 0.00 | 0.00 | 0.00 | 62 | 1009.3 | |
| 20260509182005 | 88 | 0.0 | 0.0 | 0.00 | 0.00 | 0.00 | 63 | 1009.6 | |
| 20260509181007 | 87 | 0.0 | 0.0 | 0.00 | 0.00 | 0.00 | 64 | 1009.8 | |
| 20260509180021 | 86 | 0.0 | 0.0 | 0.00 | 0.00 | 0.00 | 65 | 1009.9 | |
| 20260509174521 | 85 | 0.0 | 0.0 | 0.00 | 0.01 | 0.00 | 67 | 1010.3 | |
| 20260509173515 | 85 | 0.0 | 0.0 | 0.00 | 0.01 | 0.00 | 68 | 1010.3 | |
| 20260509173029 | 85 | 0.0 | 0.0 | 0.00 | 0.01 | 0.00 | 68 | 1010.3 | |
| 20260509172504 | 85 | 0.0 | 0.0 | 0.00 | 0.01 | 0.00 | 71 | 1010.4 | |
| 20260509172004 | 84 | 0.0 | 0.0 | 0.00 | 0.01 | 0.00 | 72 | 1010.5 | |
| 20260509171533 | 83 | 0.0 | 0.0 | 0.00 | 0.01 | 0.00 | 74 | 1010.3 | |
| 20260509171011 | 82 | 0.0 | 0.0 | 0.00 | 0.01 | 0.00 | 76 | 1010.4 | |
| 20260509170506 | 81 | 0.0 | 0.0 | 0.00 | 0.01 | 0.00 | 77 | 1010.5 | |
| 20260509165507 | 80 | 0.0 | 0.0 | 0.00 | 0.01 | 0.00 | 79 | 1010.7 | |
| 20260509165007 | 80 | 0.0 | 0.0 | 0.00 | 0.01 | 0.00 | 79 | 1010.7 | |
| 20260509164522 | 79 | 0.0 | 0.0 | 0.00 | 0.01 | 0.00 | 79 | 1010.7 | |
| 20260509164011 | 79 | 0.0 | 0.0 | 0.00 | 0.01 | 0.00 | 80 | 1010.7 | |
| 20260509163510 | 79 | 0.0 | 0.0 | 0.00 | 0.01 | 0.00 | 81 | 1010.7 | |
| 20260509163049 | 79 | 0.0 | 0.0 | 0.00 | 0.01 | 0.00 | 82 | 1010.7 | |
| 20260509162008 | 78 | 0.0 | 0.0 | 0.00 | 0.01 | 0.00 | 82 | 1010.7 | |
| 20260509161532 | 78 | 0.0 | 0.0 | 0.00 | 0.01 | 0.00 | 83 | 1010.7 | |
| 20260509161015 | 78 | 0.0 | 0.0 | 0.00 | 0.01 | 0.00 | 83 | 1010.8 | |
| 20260509160505 | 78 | 0.0 | 0.0 | 0.00 | 0.01 | 0.00 | 83 | 1010.8 | |
| 20260509160012 | 78 | 0.0 | 0.0 | 0.00 | 0.01 | 0.00 | 84 | 1010.6 | |
| 20260509155506 | 77 | 0.0 | 0.0 | 0.00 | 0.01 | 0.00 | 84 | 1010.7 | |
| 20260509155008 | 77 | 0.0 | 0.0 | 0.00 | 0.01 | 0.00 | 84 | 1010.8 | |
| 20260509154522 | 77 | 0.0 | 0.0 | 0.00 | 0.01 | 0.00 | 84 | 1010.9 | |
| 20260509153028 | 77 | 0.0 | 0.0 | 0.00 | 0.01 | 0.00 | 85 | 1010.8 | |
| 20260509152509 | 77 | 0.0 | 0.0 | 0.00 | 0.01 | 0.00 | 86 | 1010.6 | |
| 20260509152012 | 77 | 0.0 | 0.0 | 0.00 | 0.01 | 0.00 | 86 | 1010.5 | |
| 20260509151007 | 77 | 0.0 | 0.0 | 0.00 | 0.01 | 0.00 | 87 | 1010.6 | |
| 20260509150512 | 76 | 0.0 | 0.0 | 0.00 | 0.01 | 0.00 | 87 | 1010.4 | |
| 20260509150026 | 76 | 0.0 | 0.0 | 0.00 | 0.01 | 0.00 | 88 | 1010.3 | |
| 20260509145509 | 76 | 0.0 | 0.0 | 0.00 | 0.01 | 0.00 | 88 | 1010.3 | |
| 20260509145011 | 76 | 0.0 | 0.0 | 0.00 | 0.01 | 0.00 | 89 | 1010.2 | |
| 20260509144518 | 76 | 0.0 | 0.0 | 0.00 | 0.01 | 0.00 | 89 | 1010.2 | |
| 20260509144008 | 75 | 0.0 | 0.0 | 0.00 | 0.01 | 0.00 | 89 | 1010.1 | |
| 20260509143511 | 75 | 0.0 | 0.0 | 0.00 | 0.01 | 0.00 | 89 | 1009.8 | |
| 20260509143026 | 75 | 0.0 | 0.0 | 0.00 | 0.01 | 0.00 | 89 | 1009.9 | |
| 20260509142508 | 75 | 0.0 | 0.0 | 0.00 | 0.01 | 0.00 | 89 | 1009.8 | |
| 20260509142011 | 75 | 0.0 | 0.0 | 0.00 | 0.01 | 0.00 | 89 | 1009.6 | |
| 20260509140027 | 75 | 0.0 | 0.0 | 0.00 | 0.01 | 0.00 | 90 | 1009.5 | |
| 20260509135509 | 75 | 0.0 | 0.0 | 0.00 | 0.01 | 0.00 | 90 | 1009.6 | |
| 20260509135004 | 75 | 0.0 | 0.0 | 0.00 | 0.01 | 0.00 | 90 | 1009.7 | |
| 20260509134509 | 75 | 0.0 | 0.0 | 0.00 | 0.01 | 0.00 | 90 | 1009.9 | |
| 20260509134004 | 75 | 0.0 | 0.0 | 0.00 | 0.01 | 0.00 | 90 | 1010.1 | |
| 20260509133506 | 75 | 0.0 | 0.0 | 0.00 | 0.01 | 0.00 | 90 | 1010.5 | |
| 20260509133006 | 75 | 0.0 | 0.0 | 0.00 | 0.01 | 0.00 | 90 | 1010.6 | |
| 20260509132505 | 75 | 0.0 | 0.0 | 0.00 | 0.01 | 0.00 | 90 | 1010.4 | |
| 20260509132005 | 75 | 0.0 | 0.0 | 0.00 | 0.01 | 0.00 | 90 | 1010.5 | |
| 20260509131503 | 75 | 0.0 | 0.0 | 0.00 | 0.01 | 0.00 | 90 | 1010.8 | |
| 20260509131005 | 75 | 0.0 | 0.0 | 0.00 | 0.01 | 0.00 | 91 | 1010.9 | |
| 20260509130506 | 75 | 0.0 | 0.0 | 0.00 | 0.01 | 0.00 | 91 | 1010.8 | |
| 20260509130008 | 75 | 0.0 | 0.0 | 0.00 | 0.01 | 0.00 | 90 | 1010.6 | |
| 20260509125509 | 75 | 0.0 | 0.0 | 0.00 | 0.01 | 0.00 | 90 | 1010.8 | |
| 20260509125006 | 74 | 0.0 | 0.0 | 0.00 | 0.01 | 0.00 | 90 | 1010.9 | |
| 20260509124507 | 74 | 0.0 | 0.0 | 0.00 | 0.01 | 0.00 | 90 | 1010.8 | |
| 20260509124005 | 74 | 0.0 | 0.0 | 0.00 | 0.01 | 0.00 | 90 | 1010.2 | |
| 20260509123503 | 74 | 0.0 | 0.0 | 0.00 | 0.01 | 0.00 | 90 | 1010.2 | |
| 20260509123010 | 74 | 0.0 | 0.0 | 0.00 | 0.01 | 0.00 | 90 | 1010.4 | |
| 20260509122504 | 74 | 0.0 | 0.0 | 0.00 | 0.01 | 0.00 | 90 | 1010.7 | |
| 20260509122007 | 74 | 0.0 | 0.0 | 0.00 | 0.01 | 0.00 | 90 | 1010.7 | |
| 20260509121508 | 74 | 0.0 | 0.0 | 0.00 | 0.01 | 0.00 | 90 | 1010.6 | |
| 20260509121005 | 74 | 0.0 | 0.0 | 0.00 | 0.01 | 0.00 | 90 | 1010.6 | |
| 20260509120505 | 74 | 0.0 | 0.0 | 0.00 | 0.01 | 0.00 | 90 | 1010.7 | |
| 20260509120004 | 74 | 0.0 | 0.0 | 0.00 | 0.01 | 0.00 | 90 | 1010.7 | |
| 20260509115504 | 74 | 0.0 | 0.0 | 0.00 | 0.01 | 0.00 | 90 | 1010.4 | |
| 20260509115004 | 74 | 0.0 | 0.0 | 0.00 | 0.01 | 0.00 | 90 | 1010.4 | |
| 20260509114519 | 74 | 0.0 | 0.0 | 0.00 | 0.01 | 0.00 | 90 | 1010.4 | |
| 20260509114006 | 74 | 0.0 | 0.0 | 0.00 | 0.01 | 0.00 | 90 | 1010.4 | |
| 20260509113505 | 74 | 0.0 | 0.0 | 0.00 | 0.01 | 0.00 | 90 | 1010.4 | |
| 20260509113014 | 74 | 0.0 | 0.0 | 0.00 | 0.01 | 0.00 | 90 | 1010.4 | |
| 20260509112505 | 74 | 0.0 | 0.0 | 0.00 | 0.01 | 0.00 | 90 | 1010.5 | |
| 20260509112014 | 74 | 0.0 | 0.0 | 0.00 | 0.01 | 0.00 | 90 | 1010.3 | |
| 20260509111513 | 74 | 0.0 | 0.0 | 0.00 | 0.01 | 0.00 | 90 | 1010.3 | |
| 20260509111007 | 74 | 0.0 | 0.0 | 0.00 | 0.01 | 0.00 | 90 | 1010.1 | |
| 20260509110509 | 74 | 0.0 | 0.0 | 0.00 | 0.01 | 0.00 | 90 | 1009.9 | |
| 20260509110014 | 74 | 0.0 | 0.0 | 0.00 | 0.01 | 0.00 | 90 | 1009.8 | |
| 20260509105504 | 74 | 0.0 | 0.0 | 0.00 | 0.01 | 0.00 | 90 | 1009.8 | |
| 20260509105009 | 74 | 0.0 | 0.0 | 0.00 | 0.01 | 0.00 | 90 | 1009.9 | |
| 20260509104505 | 74 | 0.0 | 0.0 | 0.00 | 0.01 | 0.00 | 90 | 1009.8 | |
| 20260509104007 | 74 | 0.0 | 0.0 | 0.00 | 0.01 | 0.00 | 90 | 1009.8 | |
| 20260509103504 | 74 | 0.0 | 0.0 | 0.00 | 0.01 | 0.00 | 90 | 1009.7 | |
| 20260509103008 | 74 | 0.0 | 0.0 | 0.00 | 0.01 | 0.00 | 90 | 1009.6 | |
| 20260509102506 | 74 | 0.0 | 0.0 | 0.00 | 0.01 | 0.00 | 90 | 1009.6 | |
| 20260509102006 | 74 | 0.0 | 0.0 | 0.00 | 0.01 | 0.00 | 90 | 1009.6 | |
| 20260509101514 | 74 | 0.0 | 0.0 | 0.00 | 0.01 | 0.00 | 90 | 1009.8 | |
| 20260509101006 | 74 | 0.0 | 0.0 | 0.00 | 0.01 | 0.00 | 90 | 1009.8 | |
| 20260509100506 | 74 | 0.0 | 0.0 | 0.00 | 0.01 | 0.00 | 90 | 1009.8 | |
| 20260509100016 | 74 | 0.0 | 0.0 | 0.00 | 0.01 | 0.00 | 90 | 1009.7 | |
| 20260509095510 | 74 | 0.0 | 0.0 | 0.00 | 0.01 | 0.00 | 90 | 1009.6 | |
| 20260509095010 | 74 | 0.0 | 0.0 | 0.00 | 0.01 | 0.00 | 90 | 1009.5 | |
| 20260509094522 | 74 | 0.0 | 0.0 | 0.00 | 0.01 | 0.00 | 90 | 1009.4 | |
| 20260509094009 | 74 | 0.0 | 0.0 | 0.00 | 0.01 | 0.00 | 90 | 1009.4 | |
| 20260509093505 | 74 | 0.0 | 0.0 | 0.00 | 0.01 | 0.00 | 90 | 1009.4 | |
| 20260509093015 | 74 | 0.0 | 0.0 | 0.00 | 0.01 | 0.00 | 90 | 1009.3 | |
| 20260509092505 | 74 | 0.0 | 0.0 | 0.00 | 0.01 | 0.00 | 90 | 1009.4 | |
| 20260509092005 | 74 | 0.0 | 0.0 | 0.00 | 0.01 | 0.00 | 90 | 1009.3 | |
| 20260509091511 | 74 | 0.0 | 0.0 | 0.00 | 0.01 | 0.00 | 90 | 1009.4 | |
| 20260509091006 | 74 | 0.0 | 0.0 | 0.00 | 0.01 | 0.00 | 90 | 1009.7 | |
| 20260509090506 | 74 | 0.0 | 0.0 | 0.00 | 0.01 | 0.00 | 90 | 1009.8 | |
| 20260509090041 | 74 | 0.0 | 0.0 | 0.00 | 0.01 | 0.00 | 90 | 1009.8 | |
| 20260509085505 | 74 | 0.0 | 0.0 | 0.00 | 0.01 | 0.00 | 90 | 1009.8 | |
| 20260509085007 | 74 | 0.0 | 0.0 | 0.00 | 0.01 | 0.00 | 90 | 1009.9 | |
| 20260509084521 | 74 | 0.0 | 0.0 | 0.00 | 0.01 | 0.00 | 90 | 1009.9 | |
| 20260509084010 | 74 | 0.0 | 0.0 | 0.00 | 0.01 | 0.00 | 90 | 1009.9 | |
| 20260509083505 | 74 | 0.0 | 0.0 | 0.00 | 0.01 | 0.00 | 90 | 1009.8 | |
| 20260509083038 | 74 | 0.0 | 0.0 | 0.00 | 0.01 | 0.00 | 90 | 1009.8 | |
| 20260509081009 | 74 | 0.0 | 0.0 | 0.00 | 0.01 | 0.00 | 90 | 1009.7 | |
| 20260509080506 | 74 | 0.0 | 0.0 | 0.00 | 0.01 | 0.00 | 90 | 1009.6 | |
| 20260509080015 | 74 | 0.0 | 0.0 | 0.00 | 0.01 | 0.00 | 90 | 1009.5 | |
| 20260509075505 | 74 | 0.0 | 0.0 | 0.00 | 0.01 | 0.00 | 90 | 1009.6 | |
| 20260509075008 | 74 | 0.0 | 0.0 | 0.00 | 0.01 | 0.00 | 89 | 1009.6 | |
| 20260509074529 | 74 | 0.0 | 0.0 | 0.00 | 0.01 | 0.00 | 89 | 1009.6 | |
| 20260509074009 | 74 | 0.0 | 0.0 | 0.00 | 0.01 | 0.00 | 89 | 1009.6 | |
| 20260509073509 | 74 | 0.0 | 0.0 | 0.00 | 0.01 | 0.00 | 89 | 1009.4 | |
| 20260509073019 | 74 | 0.0 | 0.0 | 0.00 | 0.01 | 0.00 | 89 | 1009.3 | |
| 20260509072514 | 74 | 0.0 | 0.0 | 0.00 | 0.01 | 0.00 | 89 | 1009.3 | |
| 20260509072010 | 74 | 0.0 | 0.0 | 0.00 | 0.01 | 0.00 | 89 | 1009.5 | |
| 20260509065509 | 74 | 0.0 | 0.0 | 0.00 | 0.01 | 0.00 | 89 | 1009.8 | |
| 20260509065006 | 74 | 0.0 | 0.0 | 0.00 | 0.01 | 0.00 | 89 | 1009.9 | |
| 20260509064516 | 74 | 0.0 | 0.0 | 0.00 | 0.01 | 0.00 | 89 | 1010.0 | |
| 20260509064014 | 74 | 0.0 | 0.0 | 0.00 | 0.01 | 0.00 | 89 | 1010.0 | |
| 20260509063509 | 74 | 0.0 | 0.0 | 0.00 | 0.01 | 0.00 | 89 | 1010.1 | |
| 20260509063018 | 74 | 0.0 | 0.0 | 0.00 | 0.01 | 0.00 | 89 | 1010.1 | |
| 20260509062510 | 74 | 0.0 | 0.0 | 0.00 | 0.01 | 0.00 | 89 | 1010.1 | |
| 20260509062011 | 74 | 0.0 | 0.0 | 0.00 | 0.01 | 0.00 | 89 | 1010.1 | |
| 20260509061521 | 74 | 0.0 | 0.0 | 0.00 | 0.01 | 0.00 | 89 | 1010.2 | |
| 20260509061004 | 74 | 0.0 | 0.0 | 0.00 | 0.01 | 0.00 | 88 | 1010.3 | |
| 20260509060510 | 74 | 0.0 | 0.0 | 0.00 | 0.01 | 0.00 | 88 | 1010.2 | |
| 20260509060008 | 74 | 0.0 | 0.0 | 0.00 | 0.01 | 0.00 | 88 | 1010.2 | |
| 20260509055510 | 74 | 0.0 | 0.0 | 0.00 | 0.01 | 0.00 | 88 | 1010.2 | |
| 20260509055009 | 74 | 0.0 | 0.0 | 0.00 | 0.01 | 0.00 | 88 | 1010.3 | |
| 20260509054522 | 74 | 0.0 | 0.0 | 0.00 | 0.01 | 0.00 | 88 | 1010.3 | |
| 20260509054012 | 74 | 0.0 | 0.0 | 0.00 | 0.01 | 0.00 | 88 | 1010.3 | |
| 20260509053507 | 74 | 0.0 | 0.0 | 0.00 | 0.01 | 0.00 | 88 | 1010.3 | |
| 20260509053024 | 74 | 0.0 | 0.0 | 0.00 | 0.01 | 0.00 | 88 | 1010.3 | |
| 20260509052513 | 74 | 0.0 | 0.0 | 0.00 | 0.01 | 0.00 | 88 | 1010.3 | |
| 20260509052002 | 74 | 0.0 | 0.0 | 0.00 | 0.01 | 0.00 | 88 | 1010.3 | |
| 20260509051507 | 74 | 0.0 | 0.0 | 0.00 | 0.01 | 0.00 | 88 | 1010.3 | |
| 20260509051005 | 74 | 0.0 | 0.0 | 0.00 | 0.01 | 0.00 | 88 | 1010.2 | |
| 20260509050502 | 74 | 0.0 | 0.0 | 0.00 | 0.01 | 0.00 | 88 | 1010.2 | |
| 20260509050015 | 74 | 0.0 | 0.0 | 0.00 | 0.01 | 0.00 | 88 | 1010.2 | |
| 20260509045502 | 74 | 0.0 | 0.0 | 0.00 | 0.01 | 0.01 | 88 | 1010.2 | |
| 20260509045005 | 74 | 0.0 | 0.0 | 0.00 | 0.01 | 0.01 | 88 | 1010.3 | |
| 20260509044509 | 74 | 0.0 | 0.0 | 0.00 | 0.01 | 0.01 | 88 | 1010.3 | |
| 20260509044011 | 74 | 0.0 | 0.0 | 0.00 | 0.01 | 0.01 | 88 | 1010.3 | |
| 20260509043506 | 74 | 0.0 | 0.0 | 0.00 | 0.01 | 0.01 | 88 | 1010.3 | |
| 20260509043028 | 74 | 0.0 | 0.0 | 0.00 | 0.01 | 0.01 | 88 | 1010.3 | |
| 20260509042508 | 74 | 0.0 | 0.0 | 0.00 | 0.01 | 0.01 | 87 | 1010.3 | |
| 20260509042008 | 74 | 0.0 | 0.0 | 0.00 | 0.01 | 0.01 | 87 | 1010.3 | |
| 20260509041518 | 74 | 0.0 | 0.0 | 0.00 | 0.01 | 0.01 | 87 | 1010.3 | |
| 20260509041009 | 74 | 0.0 | 0.0 | 0.00 | 0.01 | 0.01 | 87 | 1010.3 | |
| 20260509040504 | 74 | 0.0 | 0.0 | 0.00 | 0.01 | 0.01 | 87 | 1010.2 | |
| 20260509040004 | 74 | 0.0 | 0.0 | 0.00 | 0.01 | 0.01 | 87 | 1010.2 | |
| 20260509035505 | 74 | 0.0 | 0.0 | 0.00 | 0.01 | 0.01 | 87 | 1010.2 | |
| 20260509035008 | 74 | 0.0 | 0.0 | 0.00 | 0.01 | 0.01 | 87 | 1010.2 | |
| 20260509034508 | 74 | 0.0 | 0.0 | 0.00 | 0.01 | 0.01 | 87 | 1010.2 | |
| 20260509034005 | 74 | 0.0 | 0.0 | 0.00 | 0.01 | 0.01 | 87 | 1010.0 | |
| 20260509033509 | 74 | 0.0 | 0.0 | 0.00 | 0.01 | 0.01 | 87 | 1010.0 | |
| 20260509033017 | 74 | 0.0 | 0.0 | 0.00 | 0.01 | 0.01 | 86 | 1009.9 | |
| 20260509032512 | 74 | 0.0 | 0.0 | 0.00 | 0.01 | 0.01 | 86 | 1009.9 |